| time (UTC) | temp F | wind direction | speed MPH | gust MPH | rain 1hr in | rain 24hr in | rain mn in | humidity % | barometer mb |
| 20260904181517 | 70 | 248 | 1.0 | 4.0 | 0.00 | 1.40 | 1.39 | 100 | 1004.1 |
| 20260904181017 | 69 | 0.0 | 4.0 | 0.00 | 1.40 | 1.39 | 100 | 1004.1 | |
| 20260904180517 | 69 | 0.0 | 2.0 | 0.00 | 1.40 | 1.39 | 100 | 1004.1 | |
| 20260904180017 | 69 | 113 | 1.0 | 4.0 | 0.00 | 1.40 | 1.39 | 100 | 1004.1 |
| 20260904175517 | 69 | 0.0 | 1.0 | 0.00 | 1.40 | 1.39 | 100 | 1004.1 | |
| 20260904175017 | 69 | 135 | 1.0 | 3.0 | 0.00 | 1.40 | 1.39 | 100 | 1004.3 |
| 20260904174517 | 68 | 135 | 1.0 | 2.0 | 0.00 | 1.40 | 1.39 | 100 | 1004.4 |
| 20260904174017 | 68 | 113 | 1.0 | 3.0 | 0.00 | 1.40 | 1.39 | 100 | 1004.5 |
| 20260904173517 | 68 | 113 | 1.0 | 2.0 | 0.00 | 1.40 | 1.39 | 100 | 1004.6 |
| 20260904173017 | 68 | 135 | 1.0 | 2.0 | 0.00 | 1.40 | 1.39 | 100 | 1004.6 |
| 20260904172517 | 68 | 0.0 | 1.0 | 0.00 | 1.40 | 1.39 | 100 | 1004.7 | |
| 20260904172017 | 68 | 113 | 1.0 | 4.0 | 0.00 | 1.40 | 1.39 | 100 | 1004.8 |
| 20260904171517 | 68 | 0.0 | 3.0 | 0.00 | 1.40 | 1.39 | 100 | 1004.8 | |
| 20260904171017 | 67 | 0.0 | 0.0 | 0.00 | 1.40 | 1.39 | 100 | 1004.9 | |
| 20260904170517 | 67 | 0.0 | 1.0 | 0.00 | 1.40 | 1.39 | 100 | 1004.9 | |
| 20260904170015 | 67 | 135 | 1.0 | 4.0 | 0.00 | 1.40 | 1.39 | 100 | 1005.0 |
| 20260904165517 | 67 | 0.0 | 2.0 | 0.00 | 1.40 | 1.39 | 100 | 1005.0 | |
| 20260904165017 | 67 | 113 | 1.0 | 5.0 | 0.00 | 1.40 | 1.39 | 100 | 1005.0 |
| 20260904164517 | 67 | 135 | 1.0 | 3.0 | 0.01 | 1.40 | 1.39 | 100 | 1005.0 |
| 20260904164017 | 67 | 158 | 1.0 | 3.0 | 0.01 | 1.40 | 1.39 | 100 | 1005.1 |
| 20260904163517 | 67 | 113 | 1.0 | 3.0 | 0.01 | 1.40 | 1.39 | 100 | 1005.2 |
| 20260904163017 | 67 | 135 | 1.0 | 4.0 | 0.02 | 1.40 | 1.39 | 100 | 1005.2 |
| 20260904162517 | 67 | 135 | 1.0 | 4.0 | 0.02 | 1.40 | 1.39 | 100 | 1005.3 |
| 20260904162017 | 67 | 113 | 2.0 | 6.0 | 0.03 | 1.40 | 1.39 | 100 | 1005.4 |
| 20260904161517 | 67 | 135 | 2.0 | 4.0 | 0.05 | 1.40 | 1.39 | 100 | 1005.4 |
| 20260904161017 | 67 | 135 | 3.0 | 7.0 | 0.11 | 1.40 | 1.39 | 100 | 1005.4 |
| 20260904160517 | 67 | 135 | 2.0 | 6.0 | 0.16 | 1.40 | 1.39 | 100 | 1005.5 |
| 20260904160017 | 67 | 135 | 3.0 | 6.0 | 0.17 | 1.40 | 1.39 | 100 | 1005.5 |
| 20260904155517 | 67 | 135 | 3.0 | 7.0 | 0.17 | 1.40 | 1.39 | 100 | 1005.5 |
| 20260904155017 | 67 | 135 | 2.0 | 5.0 | 0.17 | 1.40 | 1.39 | 100 | 1005.6 |
| 20260904154517 | 67 | 135 | 2.0 | 5.0 | 0.17 | 1.39 | 1.39 | 100 | 1005.6 |
| 20260904154017 | 67 | 135 | 2.0 | 6.0 | 0.17 | 1.39 | 1.39 | 100 | 1005.7 |
| 20260904153517 | 67 | 135 | 1.0 | 3.0 | 0.17 | 1.39 | 1.39 | 100 | 1005.8 |
| 20260904153017 | 67 | 135 | 1.0 | 4.0 | 0.17 | 1.39 | 1.38 | 100 | 1005.8 |
| 20260904152517 | 67 | 135 | 2.0 | 6.0 | 0.16 | 1.38 | 1.37 | 100 | 1005.9 |
| 20260904152017 | 66 | 113 | 2.0 | 9.0 | 0.16 | 1.37 | 1.36 | 100 | 1005.9 |
| 20260904151517 | 66 | 135 | 1.0 | 4.0 | 0.15 | 1.35 | 1.35 | 100 | 1006.0 |
| 20260904151017 | 66 | 135 | 1.0 | 9.0 | 0.10 | 1.29 | 1.28 | 100 | 1006.2 |
| 20260904150517 | 66 | 113 | 2.0 | 6.0 | 0.06 | 1.24 | 1.24 | 100 | 1006.3 |
| 20260904150017 | 67 | 113 | 2.0 | 6.0 | 0.06 | 1.24 | 1.23 | 100 | 1006.2 |
| 20260904145517 | 67 | 135 | 2.0 | 6.0 | 0.06 | 1.23 | 1.22 | 100 | 1006.1 |
| 20260904145017 | 66 | 135 | 2.0 | 6.0 | 0.06 | 1.23 | 1.22 | 100 | 1006.2 |
| 20260904144517 | 67 | 135 | 3.0 | 9.0 | 0.08 | 1.23 | 1.22 | 100 | 1006.3 |
| 20260904144017 | 67 | 135 | 2.0 | 7.0 | 0.09 | 1.23 | 1.22 | 100 | 1006.3 |
| 20260904143517 | 67 | 113 | 2.0 | 6.0 | 0.13 | 1.23 | 1.22 | 100 | 1006.5 |
| 20260904143017 | 67 | 135 | 2.0 | 8.0 | 0.19 | 1.22 | 1.21 | 100 | 1006.7 |
| 20260904142517 | 67 | 135 | 2.0 | 6.0 | 0.20 | 1.22 | 1.21 | 100 | 1006.8 |
| 20260904142017 | 67 | 135 | 4.0 | 10.0 | 0.20 | 1.21 | 1.20 | 100 | 1006.9 |
| 20260904141517 | 67 | 135 | 3.0 | 6.0 | 0.20 | 1.20 | 1.20 | 100 | 1006.9 |
| 20260904141017 | 67 | 135 | 3.0 | 9.0 | 0.18 | 1.19 | 1.18 | 100 | 1006.9 |
| 20260904140517 | 67 | 113 | 3.0 | 8.0 | 0.18 | 1.18 | 1.17 | 100 | 1006.9 |
| 20260904140017 | 67 | 113 | 3.0 | 7.0 | 0.18 | 1.17 | 1.17 | 100 | 1007.1 |
| 20260904135517 | 67 | 158 | 3.0 | 12.0 | 0.19 | 1.17 | 1.17 | 100 | 1007.2 |
| 20260904135017 | 67 | 135 | 1.0 | 5.0 | 0.18 | 1.17 | 1.16 | 100 | 1007.3 |
| 20260904134517 | 67 | 158 | 1.0 | 3.0 | 0.17 | 1.15 | 1.14 | 100 | 1007.4 |
| 20260904134017 | 67 | 113 | 2.0 | 6.0 | 0.17 | 1.14 | 1.13 | 100 | 1007.6 |
| 20260904133517 | 67 | 135 | 2.0 | 7.0 | 0.13 | 1.09 | 1.09 | 100 | 1007.6 |
| 20260904133017 | 67 | 113 | 2.0 | 5.0 | 0.07 | 1.03 | 1.02 | 100 | 1007.7 |
| 20260904132517 | 67 | 135 | 1.0 | 5.0 | 0.07 | 1.02 | 1.02 | 100 | 1007.7 |
| 20260904132017 | 67 | 135 | 2.0 | 6.0 | 0.07 | 1.02 | 1.01 | 100 | 1007.7 |
| 20260904131517 | 67 | 135 | 1.0 | 5.0 | 0.07 | 1.01 | 1.00 | 100 | 1007.8 |
| 20260904131017 | 67 | 135 | 2.0 | 7.0 | 0.09 | 1.01 | 1.00 | 100 | 1007.9 |
| 20260904130517 | 67 | 135 | 1.0 | 6.0 | 0.11 | 1.00 | 0.99 | 100 | 1007.9 |
| 20260904130017 | 67 | 135 | 2.0 | 4.0 | 0.13 | 0.99 | 0.98 | 100 | 1007.9 |
| 20260904125517 | 67 | 135 | 2.0 | 5.0 | 0.13 | 0.98 | 0.98 | 100 | 1008.0 |
| 20260904125017 | 67 | 135 | 3.0 | 7.0 | 0.14 | 0.98 | 0.98 | 100 | 1008.1 |
| 20260904124517 | 67 | 113 | 2.0 | 6.0 | 0.13 | 0.98 | 0.97 | 100 | 1008.1 |
| 20260904124017 | 66 | 113 | 1.0 | 5.0 | 0.13 | 0.97 | 0.96 | 100 | 1008.1 |
| 20260904123517 | 66 | 135 | 2.0 | 7.0 | 0.13 | 0.97 | 0.96 | 100 | 1008.3 |
| 20260904123017 | 66 | 135 | 1.0 | 4.0 | 0.13 | 0.96 | 0.95 | 100 | 1008.4 |
| 20260904122517 | 66 | 135 | 2.0 | 6.0 | 0.13 | 0.95 | 0.94 | 100 | 1008.4 |
| 20260904122017 | 66 | 135 | 1.0 | 4.0 | 0.13 | 0.94 | 0.94 | 100 | 1008.6 |
| 20260904121517 | 66 | 135 | 1.0 | 4.0 | 0.12 | 0.94 | 0.93 | 100 | 1008.7 |
| 20260904121017 | 66 | 135 | 1.0 | 5.0 | 0.12 | 0.92 | 0.91 | 100 | 1008.7 |
| 20260904120517 | 66 | 113 | 1.0 | 5.0 | 0.10 | 0.89 | 0.88 | 100 | 1008.8 |
| 20260904120017 | 66 | 113 | 1.0 | 6.0 | 0.09 | 0.86 | 0.85 | 100 | 1008.8 |
| 20260904115517 | 66 | 158 | 2.0 | 5.0 | 0.09 | 0.85 | 0.84 | 100 | 1008.9 |
| 20260904115017 | 66 | 158 | 2.0 | 10.0 | 0.09 | 0.84 | 0.83 | 100 | 1009.0 |
| 20260904114517 | 66 | 135 | 2.0 | 5.0 | 0.12 | 0.84 | 0.83 | 100 | 1009.0 |
| 20260904114017 | 66 | 135 | 1.0 | 4.0 | 0.13 | 0.84 | 0.83 | 100 | 1009.0 |
| 20260904113517 | 66 | 113 | 2.0 | 14.0 | 0.13 | 0.83 | 0.83 | 100 | 1009.1 |
| 20260904113017 | 66 | 158 | 2.0 | 10.0 | 0.14 | 0.83 | 0.83 | 100 | 1009.4 |
| 20260904112517 | 65 | 158 | 2.0 | 5.0 | 0.14 | 0.83 | 0.82 | 100 | 1009.4 |
| 20260904112017 | 65 | 158 | 3.0 | 9.0 | 0.17 | 0.82 | 0.81 | 100 | 1009.5 |
| 20260904111517 | 65 | 135 | 1.0 | 5.0 | 0.21 | 0.82 | 0.81 | 100 | 1009.5 |
| 20260904111017 | 65 | 158 | 2.0 | 5.0 | 0.24 | 0.80 | 0.80 | 100 | 1009.4 |
| 20260904110517 | 65 | 135 | 1.0 | 4.0 | 0.26 | 0.79 | 0.78 | 100 | 1009.4 |
| 20260904110017 | 65 | 135 | 1.0 | 4.0 | 0.30 | 0.77 | 0.76 | 100 | 1009.5 |
| 20260904105517 | 64 | 135 | 1.0 | 4.0 | 0.32 | 0.76 | 0.75 | 100 | 1009.6 |
| 20260904105017 | 64 | 0.0 | 0.0 | 0.34 | 0.75 | 0.74 | 100 | 1009.6 | |
| 20260904104517 | 64 | 0.0 | 0.0 | 0.34 | 0.72 | 0.72 | 100 | 1009.7 | |
| 20260904104017 | 64 | 0.0 | 2.0 | 0.35 | 0.71 | 0.70 | 100 | 1009.8 | |
| 20260904103517 | 64 | 135 | 1.0 | 5.0 | 0.36 | 0.70 | 0.69 | 100 | 1009.8 |
| 20260904103017 | 64 | 135 | 1.0 | 2.0 | 0.36 | 0.69 | 0.69 | 100 | 1009.8 |
| 20260904102517 | 64 | 135 | 1.0 | 4.0 | 0.37 | 0.69 | 0.68 | 100 | 1009.9 |
| 20260904102017 | 64 | 135 | 1.0 | 3.0 | 0.36 | 0.65 | 0.65 | 100 | 1010.0 |
| 20260904101517 | 64 | 113 | 1.0 | 3.0 | 0.35 | 0.61 | 0.60 | 100 | 1010.1 |
| 20260904101017 | 64 | 113 | 1.0 | 4.0 | 0.32 | 0.57 | 0.56 | 100 | 1010.2 |
| 20260904100517 | 64 | 113 | 1.0 | 3.0 | 0.30 | 0.53 | 0.52 | 100 | 1010.4 |
| 20260904100017 | 64 | 135 | 1.0 | 6.0 | 0.26 | 0.47 | 0.46 | 100 | 1010.6 |
| 20260904095517 | 64 | 113 | 1.0 | 5.0 | 0.24 | 0.43 | 0.43 | 100 | 1010.7 |
| 20260904095017 | 64 | 113 | 1.0 | 10.0 | 0.22 | 0.41 | 0.40 | 100 | 1010.8 |
| 20260904094517 | 64 | 158 | 2.0 | 10.0 | 0.21 | 0.39 | 0.38 | 100 | 1010.8 |
| 20260904094017 | 64 | 135 | 1.0 | 4.0 | 0.20 | 0.36 | 0.35 | 100 | 1010.8 |
| 20260904093517 | 64 | 113 | 2.0 | 8.0 | 0.18 | 0.34 | 0.33 | 100 | 1011.0 |
| 20260904093017 | 64 | 135 | 1.0 | 4.0 | 0.17 | 0.33 | 0.32 | 100 | 1011.2 |
| 20260904092517 | 64 | 135 | 2.0 | 6.0 | 0.17 | 0.31 | 0.31 | 100 | 1011.0 |
| 20260904092017 | 64 | 135 | 1.0 | 4.0 | 0.16 | 0.29 | 0.28 | 100 | 1011.1 |
| 20260904091517 | 64 | 135 | 1.0 | 2.0 | 0.13 | 0.26 | 0.25 | 100 | 1011.2 |
| 20260904091017 | 64 | 135 | 1.0 | 3.0 | 0.12 | 0.24 | 0.24 | 100 | 1011.4 |
| 20260904090518 | 64 | 113 | 1.0 | 2.0 | 0.11 | 0.23 | 0.22 | 100 | 1011.4 |
| 20260904090017 | 64 | 135 | 1.0 | 3.0 | 0.10 | 0.21 | 0.20 | 100 | 1011.4 |
| 20260904085517 | 64 | 113 | 1.0 | 3.0 | 0.09 | 0.20 | 0.19 | 100 | 1011.3 |
| 20260904085017 | 64 | 135 | 1.0 | 3.0 | 0.08 | 0.19 | 0.18 | 100 | 1011.4 |
| 20260904084517 | 64 | 135 | 1.0 | 4.0 | 0.06 | 0.17 | 0.17 | 100 | 1011.4 |
| 20260904084017 | 64 | 135 | 1.0 | 4.0 | 0.06 | 0.17 | 0.16 | 100 | 1011.6 |
| 20260904083517 | 64 | 135 | 1.0 | 4.0 | 0.06 | 0.16 | 0.15 | 100 | 1011.7 |
| 20260904083017 | 64 | 0.0 | 4.0 | 0.06 | 0.16 | 0.15 | 100 | 1011.6 | |
| 20260904082517 | 64 | 135 | 1.0 | 3.0 | 0.05 | 0.14 | 0.13 | 100 | 1011.7 |
| 20260904082017 | 64 | 113 | 1.0 | 4.0 | 0.04 | 0.13 | 0.13 | 100 | 1011.7 |
| 20260904081517 | 64 | 113 | 1.0 | 2.0 | 0.04 | 0.13 | 0.12 | 100 | 1011.7 |
| 20260904081017 | 64 | 135 | 1.0 | 3.0 | 0.05 | 0.13 | 0.12 | 100 | 1011.8 |
| 20260904080517 | 64 | 113 | 2.0 | 4.0 | 0.05 | 0.12 | 0.11 | 100 | 1011.8 |
| 20260904080017 | 64 | 135 | 1.0 | 4.0 | 0.04 | 0.11 | 0.10 | 100 | 1011.7 |
| 20260904075517 | 64 | 135 | 1.0 | 4.0 | 0.04 | 0.11 | 0.10 | 100 | 1011.7 |
| 20260904075017 | 64 | 113 | 1.0 | 3.0 | 0.05 | 0.11 | 0.10 | 100 | 1011.9 |
| 20260904074517 | 64 | 135 | 1.0 | 3.0 | 0.05 | 0.11 | 0.10 | 100 | 1012.2 |
| 20260904074017 | 64 | 135 | 1.0 | 3.0 | 0.04 | 0.10 | 0.09 | 100 | 1012.2 |
| 20260904073517 | 64 | 135 | 2.0 | 6.0 | 0.04 | 0.10 | 0.09 | 100 | 1012.3 |
| 20260904073017 | 65 | 158 | 1.0 | 3.0 | 0.04 | 0.10 | 0.09 | 100 | 1012.3 |
| 20260904072517 | 65 | 113 | 1.0 | 6.0 | 0.03 | 0.09 | 0.09 | 100 | 1012.5 |
| 20260904072017 | 65 | 135 | 1.0 | 9.0 | 0.03 | 0.09 | 0.09 | 100 | 1012.6 |
| 20260904071517 | 65 | 135 | 2.0 | 9.0 | 0.03 | 0.09 | 0.08 | 100 | 1012.6 |
| 20260904071017 | 65 | 135 | 1.0 | 6.0 | 0.02 | 0.08 | 0.07 | 100 | 1012.7 |
| 20260904070517 | 65 | 135 | 2.0 | 6.0 | 0.02 | 0.07 | 0.06 | 100 | 1012.6 |
| 20260904070017 | 65 | 158 | 1.0 | 4.0 | 0.02 | 0.07 | 0.06 | 100 | 1012.6 |
| 20260904065517 | 65 | 135 | 1.0 | 4.0 | 0.02 | 0.07 | 0.06 | 100 | 1012.7 |
| 20260904065017 | 65 | 0.0 | 2.0 | 0.02 | 0.06 | 0.06 | 100 | 1012.9 | |
| 20260904064517 | 65 | 135 | 1.0 | 3.0 | 0.02 | 0.06 | 0.06 | 100 | 1012.9 |
| 20260904064017 | 65 | 113 | 1.0 | 4.0 | 0.02 | 0.06 | 0.06 | 100 | 1012.9 |
| 20260904063517 | 65 | 0.0 | 2.0 | 0.02 | 0.06 | 0.06 | 100 | 1013.0 | |
| 20260904063017 | 65 | 135 | 1.0 | 4.0 | 0.02 | 0.06 | 0.06 | 100 | 1013.3 |
| 20260904062517 | 65 | 135 | 1.0 | 3.0 | 0.02 | 0.06 | 0.06 | 100 | 1013.3 |
| 20260904062017 | 65 | 113 | 1.0 | 3.0 | 0.03 | 0.06 | 0.06 | 100 | 1013.5 |
| 20260904061517 | 65 | 113 | 1.0 | 3.0 | 0.02 | 0.06 | 0.05 | 100 | 1013.6 |
| 20260904061017 | 65 | 135 | 1.0 | 2.0 | 0.02 | 0.06 | 0.05 | 100 | 1013.6 |
| 20260904060517 | 65 | 135 | 1.0 | 3.0 | 0.02 | 0.06 | 0.05 | 100 | 1013.7 |
| 20260904060017 | 65 | 135 | 1.0 | 4.0 | 0.02 | 0.06 | 0.05 | 100 | 1013.8 |
| 20260904055517 | 65 | 158 | 1.0 | 3.0 | 0.02 | 0.06 | 0.05 | 100 | 1013.9 |
| 20260904055017 | 65 | 0.0 | 2.0 | 0.02 | 0.05 | 0.04 | 100 | 1013.9 | |
| 20260904054517 | 65 | 0.0 | 2.0 | 0.01 | 0.04 | 0.03 | 100 | 1013.9 | |
| 20260904054017 | 65 | 158 | 1.0 | 3.0 | 0.02 | 0.04 | 0.03 | 100 | 1014.0 |
| 20260904053517 | 64 | 0.0 | 1.0 | 0.02 | 0.04 | 0.03 | 99 | 1014.1 | |
| 20260904053017 | 64 | 113 | 1.0 | 3.0 | 0.02 | 0.04 | 0.03 | 99 | 1014.2 |
| 20260904052517 | 64 | 113 | 1.0 | 2.0 | 0.02 | 0.04 | 0.03 | 99 | 1014.3 |
| 20260904052017 | 64 | 0.0 | 5.0 | 0.01 | 0.03 | 0.02 | 99 | 1014.3 | |
| 20260904051517 | 64 | 0.0 | 5.0 | 0.01 | 0.03 | 0.02 | 99 | 1014.3 | |
| 20260904051017 | 64 | 135 | 1.0 | 3.0 | 0.01 | 0.03 | 0.02 | 100 | 1014.5 |
| 20260904050517 | 64 | 0.0 | 3.0 | 0.01 | 0.03 | 0.02 | 100 | 1014.6 | |
| 20260904050017 | 64 | 135 | 1.0 | 2.0 | 0.01 | 0.03 | 0.02 | 100 | 1014.7 |
| 20260904045517 | 64 | 135 | 1.0 | 4.0 | 0.01 | 0.03 | 0.02 | 99 | 1014.8 |
| 20260904045017 | 63 | 113 | 1.0 | 3.0 | 0.01 | 0.03 | 0.02 | 99 | 1014.8 |
| 20260904044517 | 63 | 0.0 | 2.0 | 0.01 | 0.03 | 0.02 | 99 | 1015.0 | |
| 20260904044017 | 63 | 0.0 | 1.0 | 0.00 | 0.02 | 0.02 | 98 | 1015.1 | |
| 20260904043517 | 63 | 0.0 | 1.0 | 0.00 | 0.02 | 0.02 | 98 | 1015.1 | |
| 20260904043017 | 63 | 0.0 | 1.0 | 0.00 | 0.02 | 0.02 | 98 | 1015.2 | |
| 20260904042517 | 63 | 0.0 | 1.0 | 0.00 | 0.02 | 0.02 | 98 | 1015.3 | |
| 20260904042017 | 63 | 0.0 | 1.0 | 0.00 | 0.02 | 0.02 | 98 | 1015.3 | |
| 20260904041517 | 63 | 0.0 | 1.0 | 0.01 | 0.02 | 0.02 | 98 | 1015.5 | |
| 20260904041017 | 64 | 0.0 | 1.0 | 0.02 | 0.02 | 0.02 | 98 | 1015.6 | |
| 20260904040517 | 64 | 0.0 | 2.0 | 0.02 | 0.02 | 0.02 | 98 | 1015.7 | |
| 20260904040017 | 64 | 0.0 | 2.0 | 0.02 | 0.02 | 0.02 | 98 | 1015.7 | |
| 20260904035517 | 64 | 0.0 | 1.0 | 0.02 | 0.02 | 0.02 | 98 | 1015.7 | |
| 20260904035017 | 64 | 113 | 1.0 | 3.0 | 0.02 | 0.02 | 0.02 | 98 | 1015.6 |
| 20260904034517 | 64 | 0.0 | 1.0 | 0.02 | 0.02 | 0.02 | 98 | 1015.7 | |
| 20260904034017 | 64 | 0.0 | 1.0 | 0.02 | 0.02 | 0.02 | 97 | 1015.7 | |
| 20260904033517 | 64 | 0.0 | 1.0 | 0.02 | 0.02 | 0.02 | 96 | 1015.6 | |
| 20260904033017 | 64 | 135 | 1.0 | 4.0 | 0.02 | 0.02 | 0.02 | 94 | 1015.7 |
| 20260904032517 | 65 | 113 | 1.0 | 4.0 | 0.02 | 0.02 | 0.02 | 94 | 1015.7 |
| 20260904032017 | 65 | 0.0 | 3.0 | 0.02 | 0.02 | 0.02 | 96 | 1015.9 | |
| 20260904031517 | 65 | 0.0 | 3.0 | 0.01 | 0.02 | 0.01 | 95 | 1016.0 | |
| 20260904031017 | 65 | 0.0 | 1.0 | 0.00 | 0.01 | 0.00 | 95 | 1016.0 | |
| 20260904030517 | 66 | 0.0 | 1.0 | 0.00 | 0.01 | 0.00 | 95 | 1016.0 | |
| 20260904030017 | 66 | 158 | 1.0 | 2.0 | 0.00 | 0.01 | 0.01 | 96 | 1016.0 |
| 20260904025515 | 66 | 113 | 1.0 | 4.0 | 0.00 | 0.01 | 0.01 | 96 | 1016.0 |
| 20260904025015 | 65 | 135 | 1.0 | 2.0 | 0.00 | 0.01 | 0.01 | 96 | 1016.1 |
| 20260904024515 | 65 | 135 | 1.0 | 2.0 | 0.00 | 0.01 | 0.01 | 96 | 1016.1 |
| 20260904024015 | 65 | 113 | 1.0 | 3.0 | 0.00 | 0.01 | 0.01 | 97 | 1016.1 |
| 20260904023515 | 65 | 0.0 | 2.0 | 0.00 | 0.01 | 0.01 | 97 | 1016.2 | |
| 20260904023015 | 65 | 0.0 | 2.0 | 0.00 | 0.01 | 0.01 | 97 | 1016.3 | |
| 20260904022516 | 65 | 0.0 | 1.0 | 0.00 | 0.01 | 0.01 | 97 | 1016.4 | |
| 20260904022015 | 65 | 0.0 | 2.0 | 0.00 | 0.01 | 0.01 | 97 | 1016.4 | |
| 20260904021515 | 65 | 0.0 | 2.0 | 0.00 | 0.01 | 0.01 | 97 | 1016.5 | |
| 20260904021015 | 65 | 0.0 | 0.0 | 0.00 | 0.01 | 0.01 | 97 | 1016.6 | |
| 20260904020515 | 65 | 0.0 | 1.0 | 0.00 | 0.01 | 0.01 | 97 | 1016.6 | |
| 20260904020015 | 65 | 0.0 | 1.0 | 0.00 | 0.01 | 0.01 | 97 | 1016.7 | |
| 20260904015515 | 64 | 0.0 | 1.0 | 0.00 | 0.01 | 0.01 | 97 | 1016.8 | |
| 20260904015015 | 64 | 0.0 | 1.0 | 0.00 | 0.01 | 0.01 | 97 | 1017.0 | |
| 20260904014515 | 64 | 0.0 | 1.0 | 0.00 | 0.01 | 0.01 | 96 | 1017.0 | |
| 20260904014015 | 64 | 0.0 | 2.0 | 0.00 | 0.01 | 0.01 | 96 | 1017.1 | |
| 20260904013516 | 64 | 0.0 | 2.0 | 0.00 | 0.01 | 0.01 | 96 | 1017.1 | |
| 20260904013015 | 64 | 0.0 | 3.0 | 0.00 | 0.01 | 0.01 | 97 | 1017.2 | |
| 20260904012516 | 64 | 0.0 | 0.0 | 0.00 | 0.01 | 0.01 | 97 | 1017.3 | |
| 20260904012015 | 64 | 0.0 | 0.0 | 0.00 | 0.01 | 0.01 | 98 | 1017.5 | |
| 20260904011515 | 64 | 0.0 | 0.0 | 0.00 | 0.02 | 0.01 | 98 | 1017.6 | |
| 20260904011016 | 64 | 0.0 | 1.0 | 0.00 | 0.02 | 0.01 | 97 | 1017.7 | |
| 20260904010515 | 64 | 0.0 | 1.0 | 0.00 | 0.02 | 0.01 | 97 | 1017.7 | |
| 20260904010015 | 64 | 0.0 | 1.0 | 0.00 | 0.02 | 0.01 | 97 | 1017.8 | |
| 20260904005515 | 64 | 0.0 | 1.0 | 0.00 | 0.02 | 0.01 | 97 | 1017.8 | |
| 20260904005015 | 64 | 0.0 | 1.0 | 0.00 | 0.02 | 0.01 | 97 | 1017.9 | |
| 20260904004516 | 64 | 0.0 | 1.0 | 0.00 | 0.02 | 0.01 | 97 | 1017.9 | |
| 20260904004016 | 64 | 0.0 | 0.0 | 0.00 | 0.02 | 0.01 | 97 | 1018.0 | |
| 20260904003515 | 64 | 0.0 | 0.0 | 0.00 | 0.02 | 0.01 | 97 | 1018.0 | |
| 20260904003015 | 63 | 0.0 | 0.0 | 0.00 | 0.02 | 0.01 | 97 | 1018.1 | |
| 20260904002515 | 63 | 0.0 | 0.0 | 0.00 | 0.02 | 0.01 | 97 | 1018.0 | |
| 20260904002015 | 63 | 0.0 | 0.0 | 0.00 | 0.02 | 0.01 | 97 | 1018.1 | |
| 20260904001515 | 63 | 0.0 | 0.0 | 0.00 | 0.02 | 0.01 | 97 | 1018.1 | |
| 20260904001015 | 63 | 0.0 | 0.0 | 0.00 | 0.02 | 0.01 | 97 | 1018.1 | |
| 20260904000515 | 63 | 0.0 | 0.0 | 0.00 | 0.02 | 0.01 | 97 | 1018.1 | |
| 20260904000015 | 63 | 0.0 | 0.0 | 0.00 | 0.02 | 0.01 | 97 | 1018.1 | |
| 20260903235515 | 63 | 0.0 | 0.0 | 0.00 | 0.02 | 0.01 | 97 | 1018.1 | |
| 20260903235015 | 63 | 0.0 | 0.0 | 0.00 | 0.02 | 0.01 | 97 | 1018.2 | |
| 20260903234515 | 63 | 0.0 | 0.0 | 0.00 | 0.02 | 0.01 | 97 | 1018.3 | |
| 20260903234016 | 63 | 0.0 | 0.0 | 0.00 | 0.02 | 0.01 | 97 | 1018.3 | |
| 20260903233515 | 63 | 0.0 | 0.0 | 0.00 | 0.02 | 0.01 | 97 | 1018.2 | |
| 20260903233016 | 63 | 0.0 | 0.0 | 0.00 | 0.02 | 0.01 | 97 | 1018.3 | |
| 20260903232515 | 63 | 0.0 | 0.0 | 0.00 | 0.02 | 0.01 | 97 | 1018.3 | |
| 20260903232015 | 63 | 0.0 | 0.0 | 0.00 | 0.02 | 0.01 | 97 | 1018.3 | |
| 20260903231515 | 63 | 0.0 | 0.0 | 0.00 | 0.02 | 0.01 | 97 | 1018.3 | |
| 20260903231015 | 63 | 0.0 | 0.0 | 0.00 | 0.02 | 0.01 | 97 | 1018.4 | |
| 20260903230515 | 63 | 0.0 | 0.0 | 0.00 | 0.02 | 0.01 | 97 | 1018.3 | |
| 20260903230015 | 63 | 0.0 | 0.0 | 0.00 | 0.02 | 0.01 | 97 | 1018.4 | |
| 20260903225515 | 63 | 0.0 | 0.0 | 0.00 | 0.02 | 0.01 | 97 | 1018.5 | |
| 20260903225015 | 63 | 0.0 | 0.0 | 0.00 | 0.02 | 0.01 | 97 | 1018.4 | |
| 20260903224515 | 63 | 0.0 | 0.0 | 0.00 | 0.02 | 0.01 | 97 | 1018.3 | |
| 20260903224015 | 64 | 0.0 | 0.0 | 0.00 | 0.02 | 0.01 | 97 | 1018.4 | |
| 20260903223516 | 64 | 0.0 | 0.0 | 0.00 | 0.02 | 0.01 | 97 | 1018.4 | |
| 20260903223015 | 64 | 0.0 | 0.0 | 0.00 | 0.02 | 0.01 | 97 | 1018.4 | |
| 20260903222516 | 64 | 0.0 | 0.0 | 0.00 | 0.02 | 0.01 | 97 | 1018.5 | |
| 20260903222015 | 64 | 0.0 | 1.0 | 0.00 | 0.02 | 0.01 | 97 | 1018.5 | |
| 20260903221516 | 64 | 0.0 | 1.0 | 0.00 | 0.02 | 0.01 | 96 | 1018.6 | |
| 20260903221015 | 64 | 0.0 | 0.0 | 0.00 | 0.02 | 0.01 | 96 | 1018.7 | |
| 20260903220515 | 64 | 0.0 | 1.0 | 0.01 | 0.02 | 0.01 | 96 | 1018.8 | |
| 20260903220015 | 64 | 0.0 | 1.0 | 0.01 | 0.02 | 0.01 | 96 | 1018.8 | |
| 20260903215516 | 64 | 0.0 | 0.0 | 0.01 | 0.02 | 0.01 | 96 | 1018.8 | |
| 20260903215015 | 64 | 0.0 | 0.0 | 0.01 | 0.02 | 0.01 | 96 | 1018.9 | |
| 20260903214515 | 64 | 0.0 | 0.0 | 0.01 | 0.02 | 0.01 | 96 | 1018.9 | |
| 20260903214016 | 64 | 0.0 | 0.0 | 0.01 | 0.02 | 0.01 | 95 | 1018.9 | |
| 20260903213515 | 64 | 0.0 | 0.0 | 0.01 | 0.02 | 0.01 | 95 | 1018.9 | |
| 20260903213015 | 64 | 0.0 | 1.0 | 0.01 | 0.02 | 0.01 | 95 | 1019.0 | |
| 20260903212515 | 65 | 0.0 | 0.0 | 0.01 | 0.02 | 0.01 | 94 | 1019.0 | |
| 20260903212016 | 65 | 0.0 | 0.0 | 0.01 | 0.02 | 0.01 | 93 | 1019.0 | |
| 20260903211515 | 65 | 0.0 | 0.0 | 0.01 | 0.02 | 0.01 | 93 | 1019.0 | |
| 20260903211015 | 65 | 0.0 | 1.0 | 0.01 | 0.02 | 0.01 | 92 | 1019.2 | |
| 20260903210515 | 65 | 0.0 | 2.0 | 0.00 | 0.01 | 0.00 | 91 | 1019.2 | |
| 20260903210016 | 66 | 0.0 | 1.0 | 0.00 | 0.01 | 0.00 | 90 | 1019.2 | |
| 20260903205515 | 66 | 0.0 | 1.0 | 0.00 | 0.01 | 0.00 | 89 | 1019.2 | |
| 20260903205015 | 66 | 0.0 | 1.0 | 0.00 | 0.01 | 0.00 | 88 | 1019.3 | |
| 20260903204515 | 66 | 0.0 | 1.0 | 0.00 | 0.01 | 0.00 | 87 | 1019.3 | |
| 20260903204015 | 66 | 0.0 | 2.0 | 0.00 | 0.01 | 0.00 | 86 | 1019.3 | |
| 20260903203515 | 66 | 0.0 | 2.0 | 0.00 | 0.01 | 0.00 | 86 | 1019.4 | |
| 20260903203015 | 67 | 0.0 | 2.0 | 0.00 | 0.01 | 0.00 | 86 | 1019.4 | |
| 20260903202515 | 67 | 0.0 | 0.0 | 0.00 | 0.01 | 0.00 | 86 | 1019.4 | |
| 20260903202015 | 67 | 0.0 | 1.0 | 0.00 | 0.01 | 0.00 | 85 | 1019.6 | |
| 20260903201516 | 67 | 0.0 | 1.0 | 0.00 | 0.01 | 0.00 | 84 | 1019.6 | |
| 20260903201015 | 67 | 135 | 1.0 | 2.0 | 0.00 | 0.01 | 0.00 | 84 | 1019.6 |
| 20260903200515 | 67 | 0.0 | 1.0 | 0.00 | 0.01 | 0.00 | 84 | 1019.6 | |
| 20260903200015 | 67 | 135 | 1.0 | 4.0 | 0.00 | 0.01 | 0.00 | 84 | 1019.7 |
| 20260903195515 | 67 | 0.0 | 2.0 | 0.00 | 0.01 | 0.00 | 84 | 1019.7 | |
| 20260903195015 | 67 | 113 | 1.0 | 3.0 | 0.00 | 0.01 | 0.00 | 84 | 1019.8 |
| 20260903194515 | 67 | 113 | 1.0 | 2.0 | 0.00 | 0.01 | 0.00 | 84 | 1019.8 |
| 20260903194016 | 67 | 113 | 1.0 | 4.0 | 0.00 | 0.01 | 0.00 | 84 | 1019.8 |
| 20260903193515 | 67 | 113 | 1.0 | 3.0 | 0.00 | 0.01 | 0.00 | 83 | 1019.8 |
| 20260903193015 | 67 | 135 | 1.0 | 2.0 | 0.00 | 0.01 | 0.00 | 84 | 1019.9 |
| 20260903192515 | 67 | 113 | 1.0 | 4.0 | 0.00 | 0.01 | 0.00 | 83 | 1019.9 |
| 20260903192015 | 67 | 135 | 2.0 | 4.0 | 0.00 | 0.01 | 0.00 | 83 | 1020.0 |
| 20260903191515 | 68 | 113 | 1.0 | 3.0 | 0.00 | 0.01 | 0.00 | 83 | 1020.0 |
| 20260903191015 | 68 | 135 | 1.0 | 5.0 | 0.00 | 0.01 | 0.00 | 84 | 1020.0 |
| 20260903190515 | 68 | 113 | 1.0 | 5.0 | 0.00 | 0.01 | 0.00 | 83 | 1020.0 |
| 20260903190015 | 68 | 135 | 1.0 | 4.0 | 0.00 | 0.01 | 0.00 | 85 | 1020.1 |
| 20260903185515 | 68 | 135 | 1.0 | 3.0 | 0.00 | 0.01 | 0.00 | 83 | 1020.2 |
| 20260903185015 | 68 | 0.0 | 4.0 | 0.00 | 0.01 | 0.00 | 83 | 1020.3 | |
| 20260903184515 | 68 | 0.0 | 1.0 | 0.00 | 0.01 | 0.00 | 84 | 1020.4 | |
| 20260903184015 | 68 | 113 | 1.0 | 4.0 | 0.00 | 0.01 | 0.00 | 83 | 1020.5 |
| 20260903183516 | 68 | 135 | 1.0 | 3.0 | 0.00 | 0.01 | 0.00 | 83 | 1020.6 |
| 20260903183015 | 68 | 0.0 | 2.0 | 0.00 | 0.01 | 0.00 | 83 | 1020.6 | |
| 20260903182515 | 68 | 113 | 1.0 | 2.0 | 0.00 | 0.01 | 0.00 | 83 | 1020.6 |
| 20260903182015 | 68 | 0.0 | 2.0 | 0.00 | 0.01 | 0.00 | 83 | 1020.7 |